Погода в Малой Кеме

Россия / Приморский край     45°24′52″N   137°09′21″E
темп.,
°C
ветер,
м/с
пор.,
м/с
влажн.,
%
обл.,
%
осадки,
мм/ч
давл.,
гПа
погр.,
м
28 июня, вт
вт2801:00+13св0194100 0.0 100711
04:00+12вюв1196100 0.0 100710
07:00+13св2295100 0.0 100796
10:00+14всв2388100 0.1 1006208
13:00+14св2388100 0.0 1005251
16:00+13св3599100 2.7 1003135
19:00+13св410100100 6.7 1001293
22:00+14св4999100 12.0 1000198
29 июня, ср
ср2901:00+15ссв51195100 1.8 1000451
04:00+14всв3498100 2.3 100157
07:00+14всв2599100 0.4 1003104
10:00+15всв2497100 0.4 1004117
13:00+17в3482100 0.0 1005476
16:00+16всв2384100 0.0 1006325
19:00+15в128936 0.0 1007158
22:00+12ссв229845 0.0 100937
30 июня, чт
чт3001:00+12св1198100 0.1 101030
04:00+12св1198100 0.1 101137
07:00+13в1197100 0.0 101380
10:00+15вюв2185100 0.0 1013319
13:00+16юв327889 0.0 1014367
16:00+14юв128890 0.1 1014117
19:00+13св1290100 0.0 101465
22:00+13ссв1190100 0.0 101519
1 июля, пт
пт101:00+13св119098 0.0 101512
04:00+13ссв1188100 0.0 101515
07:00+14св1185100 0.0 101544
10:00+17вюв2172100 0.0 1014287
13:00+17ююв2273100 0.0 1014311
16:00+15ю018198 0.0 101392
19:00+16ююз347943 0.0 1012155
22:00+14юз229245 0.0 101120
2 июля, сб
сб201:00+14зюз2289100 0.0 101021
04:00+15юз2292100 0.3 100925
07:00+17зюз239141 0.1 100866
10:00+22ю337242 0.1 1007455
13:00+22ююв336617 0.0 1006308
16:00+25юз575527 0.1 10041095
19:00+21юз457914 0.0 100458
22:00+19з33832 0.0 100436